User: anonymous   Login
Location: Unspecified
(0.0000°N, 0.0000°E)
Time: 10:13:33
(UTC+00:00)
Language:

HuskySat-1 - Orbit

View from above orbital plane
View from above orbital plane
View from above satellite
View from above satellite

Ground track
Ground track

The orbit data is extracted from the following two-line orbital elements,

1 45117U 19071G   20188.74399002  .00000956  00000-0  40283-4 0  9990
2 45117  51.6435 269.9984 0011482 125.5042 234.7012 15.33753561 24088
Epoch (UTC): 06 July 2020 17:51:20
Eccentricity: 0.0011482
inclination: 51.6435°
perigee height: 457 km
apogee height: 472 km
right ascension of ascending node: 269.9984°
argument of perigee: 125.5042°
revolutions per day: 15.33753561
mean anomaly at epoch: 234.7012°
orbit number at epoch: 2408

The dashed part of the orbit path shows where the satellite is in the earth's shadow,  

DLR